[ hide orbit diagram ]
For accurate long-term ephemerides, please instead use our Horizons system.This orbit viewer was implemented using two-body methods, and hence should not be used for determining accurate long-term trajectories (over several years or decades) or planetary encounter circumstances.
Orbital Elements at Epoch 2459200.5 (2020-Dec-17.0) TDB
Reference: JPL 42 (heliocentric ecliptic J2000)
Element | Value | Uncertainty (1-sigma) | Units |
e | .1155971443854259 | 1.765e-08 | |
a | 3.013863000586344 | 1.3751e-08 | au |
q | 2.665469044149672 | 5.3836e-08 | au |
i | 10.65622866100786 | 1.1284e-06 | deg |
node | 166.4972781446688 | 3.8216e-06 | deg |
peri | 252.8652751183848 | 9.1256e-06 | deg |
M | 130.2184231397875 | 1.0344e-05 | deg |
tp | 2458509.220594623770 (2019-Jan-25.72059462) | 5.2838e-05 | TDB |
period | 1911.101209298892 5.23 | 1.308e-05 3.581e-08 | d yr |
n | .1883730690181865 | 1.2892e-09 | deg/d |
Q | 3.362256957023017 | 1.5341e-08 | au |
|
| | Orbit Determination Parameters
Additional Information
|
[ show covariance matrix ]
Physical Parameter Table
Parameter |
Symbol |
Value |
Units |
Sigma |
Reference |
Notes |
absolute magnitude |
H |
11.45 |
|
n/a |
E2021B10 |
|
diameter |
diameter |
20.829 |
km |
0.123 |
urn:nasa:pds:neowise_diameters_albedos::2.0[mainbelt] (http://adsabs.harvard.edu/abs/2014ApJ...791..121M) |
|
rotation period |
rot_per |
209.174 |
h |
n/a |
LCDB (Rev. 2020-October); Warner et al., 2009 |
Result based on less than full coverage, so that the period may be wrong by 30 percent or so. Published Reference List: [Pal, A.; Szakats, R.; Kiss, C.; Bodi, A.; et al. (2019) Ap. J. Supl. Ser. 247, id.26.] |
geometric albedo |
albedo |
0.123 |
|
0.034 |
urn:nasa:pds:neowise_diameters_albedos::2.0[mainbelt] (http://adsabs.harvard.edu/abs/2014ApJ...791..121M) |
|
|
2413 van de Hulst (6816 P-L) Discovered 1960-Sep-24 by PLS at Palomar |
These planets have all been discovered as a result of the Palomar survey of faint minor planets and subsequently identified with planets observed at other oppositions. In Sept. and Oct. 1960, T. Gehrels exposed 130 plates with the 122 cm Schmidt camera at Palomar. In the following years C. J. van Houten and I. van Houten-Groeneveld measured these plates astrometrically and photometrically at Leiden. P. Herget, Cincinnati, computed the orbits of the planets found on the NORC computer, Dahlgren, Virginia, USA. |
Note: "planet" implies "minor planet" |
Reference: DISCOVERY.DB | Last Updated: 2003-08-29 |
|
Alternate Designations
6816 P-L = 1931 EM = 1952 DV1 = 1973 FY1 = 1978 ER4 |
|
|